Location: ??
(35.5052°N, 139.7262°E)
Time: 02:49:20
(UTC+00:00)

Cosmos 1816 Rocket - Pass Details

Date: 20 June 2021
Orbit: 952 x 998 km, 82.9° (Epoch: 26 July)

Event Time Altitude Azimuth Distance (km) Brightness Sun altitude
Exits shadow 14:04:37 76° 48° (NE) 985 4.4 -30.4°
Drops below altitude 10° 14:10:21 10° 9° (N) 2,684 7.6 -30.6°
Sets 14:12:51 0° 8° (N) 3,633 8.5 -30.6°
